This is the latest recevied weather packets stored in our database for station/object AF5AA. If no packets are shown the sender has not sent any weather packets the latest 10 day(s).
| Time | Temp. | Humidity | Pressure | Rain* | Wind** | Luminosity | Snow |
|---|---|---|---|---|---|---|---|
| 1778031626 | 24.44° C | 92% | 1005.8 hPa | 0 mm | - | 0 W/m² | - |
| 1778031325 | 24.44° C | 91% | 1005.5 hPa | 0 mm | - | 0 W/m² | - |
| 1778031021 | 25° C | 91% | 1005.8 hPa | 0 mm | - | 0 W/m² | - |
| 1778030717 | 25° C | 91% | 1005.6 hPa | 0 mm | - | 0 W/m² | - |
| 1778030415 | 25° C | 90% | 1005.8 hPa | 0 mm | - | 0 W/m² | - |
| 1778030112 | 25° C | 90% | 1005.4 hPa | 0 mm | - | 0 W/m² | - |
| 1778029808 | 25.56° C | 89% | 1005.3 hPa | 0 mm | - | 0 W/m² | - |
| 1778029508 | 25.56° C | 88% | 1005.5 hPa | 0 mm | - | 1 W/m² | - |
| 1778029204 | 25.56° C | 88% | 1005.2 hPa | 0 mm | - | 1 W/m² | - |
| 1778028901 | 26.11° C | 87% | 1005.1 hPa | 0 mm | - | 2 W/m² | - |
| 1778028596 | 26.11° C | 86% | 1005.1 hPa | 0 mm | - | 4 W/m² | - |
| 1778028295 | 26.11° C | 86% | 1005 hPa | 0 mm | - | 5 W/m² | - |
| 1778027990 | 26.11° C | 85% | 1005 hPa | 0 mm | - | 6 W/m² | - |
| 1778027687 | 26.67° C | 84% | 1004.8 hPa | 0 mm | - | 9 W/m² | - |
| 1778027383 | 26.67° C | 83% | 1005 hPa | 0 mm | - | 9 W/m² | - |
| 1778027079 | 26.67° C | 83% | 1004.8 hPa | 0 mm | - | 10 W/m² | - |
| 1778026775 | 26.67° C | 83% | 1004.8 hPa | 0 mm | - | 15 W/m² | - |
| 1778026472 | 26.67° C | 82% | 1004.8 hPa | 0 mm | - | 20 W/m² | - |
| 1778026169 | 26.67° C | 82% | 1004.8 hPa | 0 mm | - | 20 W/m² | - |
| 1778025867 | 26.67° C | 81% | 1004.9 hPa | 0 mm | - | 21 W/m² | - |
| 1778025563 | 27.22° C | 82% | 1005 hPa | 0 mm | - | 26 W/m² | - |
| 1778025262 | 27.22° C | 81% | 1004.8 hPa | 0 mm | - | 35 W/m² | - |
| 1778024958 | 27.22° C | 81% | 1004.9 hPa | 0 mm | - | 34 W/m² | - |
| 1778024656 | 27.22° C | 80% | 1004.9 hPa | 0 mm | - | 36 W/m² | - |
| 1778024352 | 27.22° C | 79% | 1004.6 hPa | 0 mm | - | 35 W/m² | - |
* Rain latest hour (hover to see other rain measurements)
** Current wind speed in m/s (hover to see current wind gust speed)